This is the latest recevied weather packets stored in our database for station/object IT9RID. If no packets are shown the sender has not sent any weather packets the latest 10 day(s).
| Time | Temp. | Humidity | Pressure | Rain* | Wind** | Luminosity | Snow |
|---|---|---|---|---|---|---|---|
| 1787966269 | 29.44° C | 80% | 1015.2 hPa | 0 mm | - | - | - |
| 1787965669 | 29.44° C | 75% | 1015.2 hPa | 0 mm | - | - | - |
| 1787965069 | 29.44° C | 65% | 1015.1 hPa | 0 mm | - | - | - |
| 1787964468 | 29.44° C | 54% | 1014.9 hPa | 0 mm | - | - | - |
| 1787963869 | 29.44° C | 41% | 1014.5 hPa | 0 mm | - | - | - |
| 1787963268 | 30° C | 40% | 1014.4 hPa | 0 mm | - | - | - |
| 1787962668 | 30° C | 38% | 1014.1 hPa | 0 mm | - | - | - |
| 1787962068 | 30° C | 37% | 1014.1 hPa | 0 mm | - | - | - |
| 1787961468 | 29.44° C | 40% | 1013.7 hPa | 0 mm | - | - | - |
| 1787960868 | 28.89° C | 41% | 1013.7 hPa | 0 mm | - | - | - |
| 1787960268 | 29.44° C | 40% | 1013.8 hPa | 0 mm | - | - | - |
| 1787959667 | 29.44° C | 42% | 1013.9 hPa | 0 mm | - | - | - |
| 1787959067 | 29.44° C | 42% | 1014 hPa | 0 mm | - | - | - |
| 1787958467 | 30° C | 41% | 1014.2 hPa | 0 mm | - | - | - |
| 1787957867 | 30° C | 42% | 1014.4 hPa | 0 mm | - | - | - |
| 1787957267 | 29.44° C | 50% | 1014.6 hPa | 0 mm | - | - | - |
| 1787956667 | 30° C | 51% | 1014.7 hPa | 0 mm | - | - | - |
| 1787956066 | 30° C | 41% | 1014.7 hPa | 0 mm | - | - | - |
| 1787955467 | 30.56° C | 38% | 1014.6 hPa | 0 mm | - | - | - |
| 1787954866 | 30.56° C | 38% | 1014.5 hPa | 0 mm | - | - | - |
| 1787954266 | 30.56° C | 39% | 1014.3 hPa | 0 mm | - | - | - |
| 1787953666 | 31.11° C | 39% | 1014.4 hPa | 0 mm | - | - | - |
| 1787953066 | 30.56° C | 40% | 1014.5 hPa | 0 mm | - | - | - |
| 1787952466 | 30.56° C | 42% | 1014.4 hPa | 0 mm | - | - | - |
| 1787951865 | 30.56° C | 41% | 1014.3 hPa | 0 mm | - | - | - |
* Rain latest hour (hover to see other rain measurements)
** Current wind speed in m/s (hover to see current wind gust speed)